Location: Noverd
(38.0910°N, 121.6877°W)
Time: 19:39:33
(UTC+00:00)

Cosmos 2297 Rocket - Pass Details

Date: 13 February 2026
Orbit: 838 x 843 km, 71.0° (Epoch: 10 March)

Event Time Altitude Azimuth Distance (km) Brightness Sun altitude
Exits shadow 13:24:22 23° 227° (SW) 1,733 3.4 -19.2°
Drops below altitude 10° 13:27:07 10° 202° (SSW) 2,447 4.4 -18.6°
Sets 13:29:53 0° 190° (S) 3,376 5.3 -18.1°
